Location: *
(48.7358°N, 0.3111°E)
Time: 20:02:43
(UTC+00:00)

Cosmos 1726 - Pass Details

Date: 22 October 2019
Orbit: 483 x 500 km, 82.5° (Epoch: 20 November)

Event Time Altitude Azimuth Distance (km) Brightness Sun altitude
Rises 05:54:28 0° 332° (NNW) 2,566 5.4 -6.4°
Reaches altitude 10° 05:57:27 10° 305° (NW) 1,681 4.2 -5.9°
Maximum altitude 05:59:16 13° 275° (W) 1,481 3.9 -5.6°
Drops below altitude 10° 06:01:05 10° 245° (WSW) 1,678 4.3 -5.3°
Sets 06:04:04 0° 218° (SW) 2,556 5.5 -4.8°
